User: anonymous   Login
Location: Grange Rosano
(44.4500°N, 6.9667°E)
Time: 17:25:05
(UTC+00:00)
Language:

ADEOS II - Orbit

View from above orbital plane
View from above orbital plane
View from above satellite
View from above satellite

Ground track
Ground track

The orbit data is extracted from the following two-line orbital elements,

1 27597U 02056A   22228.46877473  .00000152  00000-0  79396-4 0  9991
2 27597  98.6085 171.4493 0001145 130.6121 229.5160 14.27633975 24538
Epoch (UTC): 16 August 2022 11:15:02
Eccentricity: 0.0001145
inclination: 98.6085°
perigee height: 799 km
apogee height: 800 km
right ascension of ascending node: 171.4493°
argument of perigee: 130.6121°
revolutions per day: 14.27633975
mean anomaly at epoch: 229.5160°
orbit number at epoch: 2453

The dashed part of the orbit path shows where the satellite is in the earth's shadow,  

DLR